Regional Weather Roundup
Issued by NWS

Home | Current Version | Previous Version | Text Only | Print | Product List | Glossary Off
Versions: 1 2 3 4 5 6 7 8 9 10 11 12 13 14 15 16 17 18 19 20 21 22 23 24 25 26 27 28 29 30 31 32 33 34 35 36 37 38 39 40 41 42 43 44 45 46 47 48 49 50

000
ASUS45 KSLC 311110
RWRUT

UTAH REGIONAL WEATHER ROUNDUP
NATIONAL WEATHER SERVICE SALT LAKE CITY UT
400 AM MST SAT JAN 31 2015

UTZ001>011-023>025-311200-

NORTHERN UTAH

CITY           SKY/WX    TMP DP  RH WIND       PRES   REMARKS
BRIGHAM CITY   CLOUDY    37  29  73 NW9       29.97F WCI  30
HILL AFB       MOCLDY    39  30  70 E13       29.95S WCI  31
LOGAN          CLEAR     32  30  92 CALM      30.01S
OGDEN          CLOUDY    35  31  85 SW5       29.95S WCI  31
PROVO AIRPORT  CLOUDY    37  34  87 E3        29.94F
SALT LAKE CITY CLOUDY    39  34  82 W5        29.96S
VERNAL         LGT RAIN  36  35  96 CALM      29.92F VSB 1/4
WENDOVER       CLOUDY    39  27  60 SW3       29.99S
HEBER CITY     CLOUDY    32  32 100 CALM      29.96F
WEST JORDAN    CLOUDY    37  36  93 NW9       29.96S WCI  31

$$

UTZ012>022-026-027-311200-

SOUTHERN/CENTRAL UTAH

CITY           SKY/WX    TMP DP  RH WIND       PRES   REMARKS
BLANDING       CLOUDY    32  32 100 NW3       29.96F
BRYCE CANYON   CLOUDY    30  28  92 N5        29.89F WCI  25
CEDAR CITY     LGT RAIN  35  34  96 N3        29.89S
DELTA          CLOUDY    37  37  99 N9        29.93S WCI  30
HANKSVILLE     CLOUDY    37  37 100 CALM      29.93F
MILFORD        LGT RAIN  37  35  92 N9        29.91F WCI  30
MOAB/CYNLANDS  LGT RAIN  38  37  97 CALM      29.89F
PRICE          FOG       34  33  96 E3        29.89F VSB 1/2
ST GEORGE      CLOUDY    46  43  87 CALM      29.89F
KANAB            N/A     36  36 100 NE6       29.92F WCI  31

$$

REGIONAL REPORTS     COLORADO/ARIZONA

CITY           SKY/WX    TMP DP  RH WIND       PRES   REMARKS
CRAIG, CO      MIX PCPN  33  32  96 CALM      29.90F FOG
GRAND JUNCTION LGT RAIN  38  38 100 NW3       29.89S VSB 3/4
RIFLE          CLOUDY    36  35  96 CALM      29.89F FOG
MONTROSE       CLOUDY    37  36  96 NW5       29.90F FOG     WCI  33
CORTEZ         MIX PCPN  34  34 100 E5        29.89F WCI  30
PAGE, AZ       NOT AVBL
GRAND CANYON   CLOUDY    37  37 100 CALM      29.87F
KINGMAN        CLOUDY    46  44  93 NE3       29.84F
FLAGSTAFF      CLOUDY    36  34  92 NW3       29.86F

$$

REGIONAL REPORTS    NEVADA/IDAHO/WYOMING

CITY           SKY/WX    TMP DP  RH WIND       PRES   REMARKS
LAS VEGAS, NV  LGT RAIN  49  46  90 S6        29.83S
ELY            CLOUDY    32  31  96 N13G18    29.97R WCI  22
ELKO           PTCLDY    26  24  92 CALM      30.05F
POCATELLO, ID  CLOUDY    33  32  96 SW12      30.09F WCI  24
BURLEY         CLOUDY    34  30  85 S5        30.08F WCI  30
EVANSTON, WY   CLOUDY    29  26  89 CALM      29.98S
ROCK SPRINGS   CLOUDY    27  26  96 NW5       29.97F WCI  22
KEMMERER       CLOUDY    30  27  86 N7        29.99F WCI  23

$$



USA.gov is the U.S. government's official web portal to all federal, state and local government web resources and services.